STARLINK-32279, 61003

Orbit data source: Space-Track

STARLINK-32279, 61003 is a payload satellite owned by SpaceX/Seattle (US) in LEO that was launched on Thu, 05 Sep 2024 UTC via an FALCON 9 launch vehicle from the Air Force Eastern Test Range (AFETR). Payload-class satellites include a variety of spacecraft equipped with specific instruments for various scientific and technological missions. These include communications satellites like Starlink; space stations such as the ISS; scientific satellites like the Hubble; Earth observation satellites from companies like Planet Labs, Umbra, and HawkEye 360; GPS; miniature CubeSats for education and research; and military/defense satellites.

Loading next visibility...
Identifier
61003, 2024-158P
Orbit
LEO
Country
Flag of USUS
Related business
Manufacturer
SpaceX/Seattle
Mission
Operational Commercial Communications
Bus & Motor
STARLINK V2M, Unknown motor
Mass
730 kg wet, ~700 kg dry
Launch date (UTC)
2024-09-05 (1 year ago)
Launch vehicle
FALCON 9
Launch site
Air Force Eastern Test Range (AFETR)
Object type
Payload
Rocket body
Debris
Shape & HBR
Box + 2 Pan, 17.7 m
Radar Cross Section
33.884 m², Large (>1 m²)

Expand to show TLE details & history
Last TLE update: 20 hours ago

TLE from 20 hours ago
0 STARLINK-32279
1 61003U 24158P   25297.39781700  .00002475  00000-0  95701-4 0  9994
2 61003  53.1614 338.6456 0001329  69.1887 290.9256 15.30186431 64781
Epoch: 2025-10-24T09:32Z
TLE epoch observation values (Epoch: 2025-10-24T09:32:51.388Z)
Latitude
-0.00004°
Longitude
162.38816°
Altitude
475.83 km
Speed
7.629 km/s
True Right ascension
22h 34m 34s
True Declination
0° 00' 00"
Sunlit
Object was in full shadow at epoch
Visualization orbit readout
Latitude
Unknown
Longitude
Unknown
Altitude
Unknown
Speed
Unknown
Apparent Right ascension
Unknown
Apparent Declination
Unknown
Sunlit
N/A
Visualization observer readout
Local Sidereal Time
00:31:29
Azimuth
Unknown
Elevation
Unknown
Doppler factor
Unknown
Orbital elements
Apogee altitude
476.423 km
Perigee altitude
474.601 km
Semi-major axis
6,853.649 km
Eccentricity
0.00013
Inclination
53.1614°
RAAN
338.6456°
Arg. of periapsis
69.1887°
True anomaly
290.91137°
Mean anomaly
290.9256°
Eccentric anomaly
290.91849°
Mean motion
3.82526 °/min
Orbital period
94.11 mins
BSTAR
0.000095701
Loading maneuver chart data...
Computing Atmospheric mass density...
Loading historical data...
Loading historical data...
Loading historical data...
Loading historical data...
Loading historical data...
Loading historical data...
Loading historical data...

Documentation

Showing up to 5 results
|